Location: Shepherdstown, WV
(39.4326°N, 77.8042°W)
Time: 05:48:19
(UTC-04:00)

Vanguard 3 - Pass Details

Date: 10 August 2021
Orbit: 510 x 3260 km, 33.3° (Epoch: 21 September)

Event Time Altitude Azimuth Distance (km) Brightness Sun altitude
Rises 13:37:59 0° 182° (S) 3,429 10.7 65.5°
Reaches altitude 10° 13:42:14 10° 150° (SSE) 2,975 10.5 65.3°
Maximum altitude 13:44:48 12° 130° (SE) 3,125 10.5 65.1°
Drops below altitude 10° 13:47:47 10° 110° (ESE) 3,628 10.6 65.0°
Sets 13:54:41 0° 85° (E) 5,395 11.2 64.5°
